Wind_Speed
46 48 47 53 57 62 62 59 55 51 45 41 40 36 28 20 18 10 3 6 9 12 15 16 21 25 26 32 34 35 33 33 29 26 27 28 29 32 35 36 37 38 40 41
49 52 52 55 56 61 67 64 60 56 51 44 41 39 35 25 20 17 10 7 12 12 12 14 18 21 25 31 34 36 38 38 38 35 32 33 37 37 39 39 40 37 39 37
49 54 53 60 60 58 68 69 66 61 55 51 49 41 39 31 24 19 16 11 10 9 12 13 15 17 21 27 32 35 38 36 38 40 39 35 36 36 36 35 36 34 34 32
52 54 57 60 65 62 65 73 71 66 61 57 51 46 43 36 29 25 19 15 12 10 13 15 17 15 16 22 26 32 36 37 39 44 42 35 35 33 33 33 27 29 25 18
53 54 60 57 65 66 64 71 75 71 65 61 55 49 46 42 34 29 23 18 16 12 12 14 18 19 13 17 18 25 30 33 35 38 41 40 37 33 33 27 22 18 20 19
51 60 66 64 62 70 69 68 76 76 72 66 59 55 49 47 39 34 29 24 21 15 17 14 19 22 19 18 18 20 22 24 29 33 34 36 38 38 35 35 34 32 32 32
42 60 67 73 72 73 76 72 75 79 77 70 64 61 54 49 46 39 33 29 26 18 23 15 15 20 22 19 19 20 19 18 20 23 29 30 29 30 29 28 30 30 31 32
27 44 62 79 82 82 83 80 77 82 80 74 71 65 58 54 51 44 37 32 29 29 24 19 17 16 20 20 19 19 21 20 17 17 20 22 20 23 23 22 27 27 27 26
19 26 42 57 76 86 88 86 81 80 79 81 75 68 64 59 55 52 43 37 37 36 32 27 24 20 17 20 20 19 17 20 18 15 16 16 17 17 18 19 19 20 19 20
23 17 27 39 63 88 91 86 82 81 84 84 77 72 70 64 59 58 49 44 42 39 35 34 28 24 21 19 19 17 17 15 13 9 8 7 8 11 11 13 14 13 12 14
36 19 18 33 53 84 91 85 85 83 83 86 84 76 74 69 64 60 55 51 47 45 40 40 30 31 25 21 19 19 16 14 9 5 4 4 5 3 4 8 7 11 11 11
32 33 14 31 47 79 90 87 85 82 82 85 88 81 78 73 69 64 61 56 52 50 43 42 36 37 35 29 23 23 19 16 13 10 6 3 1 3 4 3 2 3 5 9
29 32 21 19 45 72 91 89 86 86 84 83 90 87 80 77 74 70 66 63 59 54 50 45 42 42 42 38 31 30 26 19 17 14 11 7 5 7 8 7 8 8 6 6
31 30 31 16 38 67 90 91 90 88 85 80 89 93 85 81 79 76 71 67 63 60 57 53 48 47 45 42 39 34 32 27 20 19 16 14 12 12 12 8 5 13 10 8
30 29 28 19 25 60 89 92 91 90 87 89 93 94 90 84 80 80 78 74 70 65 60 58 54 55 52 48 43 39 33 34 27 21 17 19 17 17 18 20 22 21 19 15
26 30 32 27 23 49 83 93 91 91 90 87 91 94 92 88 83 81 80 77 72 70 65 62 59 57 58 55 51 45 39 33 32 30 25 24 22 21 22 24 23 29 25 21
28 33 31 35 21 37 73 94 94 91 89 89 89 91 92 91 87 82 81 78 75 72 68 65 63 60 63 57 54 49 44 40 35 32 30 26 28 28 29 28 30 27 25 19
31 30 33 40 24 38 60 93 97 95 91 87 91 92 95 94 87 83 81 79 76 75 72 70 68 65 68 63 60 56 53 49 43 38 34 32 33 33 33 33 31 31 32 31
31 33 34 40 26 37 54 84 98 98 93 93 89 87 94 96 86 85 82 79 79 78 77 76 74 70 68 67 65 60 58 55 52 48 45 40 36 37 32 33 36 40 36 41
32 36 36 39 28 36 54 73 99 101 101 100 94 88 82 93 92 87 82 81 84 82 81 79 76 73 68 69 68 65 63 57 56 56 54 49 40 39 37 38 44 41 45 51
34 39 38 38 25 36 52 66 91 102 104 103 104 100 95 90 91 90 88 85 83 86 86 81 78 75 72 72 70 65 67 65 64 59 54 45 41 42 40 43 50 55 56 61
34 37 43 38 23 33 50 64 78 101 104 105 105 98 97 94 91 93 91 86 83 83 80 79 81 81 78 76 72 69 70 72 70 66 64 52 48 52 57 58 56 59 62 64
34 38 46 35 23 27 47 59 72 89 105 105 101 99 96 98 96 91 90 88 87 86 81 82 83 83 83 80 77 78 75 75 74 75 72 68 63 63 64 60 55 64 66 69
33 40 48 32 22 24 39 54 65 77 91 102 102 101 101 99 97 96 90 94 94 89 91 88 84 81 80 82 84 83 81 80 75 75 74 71 68 63 72 74 72 71 76 82
31 40 49 31 22 21 33 49 60 67 80 92 100 101 101 102 101 100 96 90 92 92 92 86 89 86 84 84 85 88 88 87 83 82 80 77 71 70 78 83 80 75 83 84
32 39 47 31 21 20 30 45 57 56 59 69 87 95 101 99 101 101 101 104 98 89 91 92 83 86 88 87 87 88 88 86 86 84 84 80 78 77 83 88 91 85 85 87
Wind_Direction
225 225 221 225 219 211 210 211 210 212 214 212 212 215 219 218 212 216 180 82 77 91 77 72 68 65 66 67 73 72 77 81 82 85 90 90 92 107 110 109 108 108 108 111
231 224 220 220 220 213 210 211 211 210 211 209 213 218 219 216 208 214 190 143 109 82 89 83 73 70 71 72 75 75 75 84 86 86 87 93 102 108 108 114 116 116 117 115
235 225 223 218 219 216 211 210 212 211 208 207 211 215 218 216 204 205 199 176 153 109 86 110 89 81 77 77 78 80 75 84 85 89 91 92 98 104 110 117 120 119 118 113
230 225 220 218 218 218 215 210 212 212 207 207 207 208 216 215 206 201 208 186 174 166 113 109 116 100 98 85 84 81 82 83 87 85 88 91 97 106 120 125 126 122 118 109
233 227 214 214 215 214 214 212 211 212 209 205 207 205 214 217 205 198 207 200 183 169 145 124 122 118 116 105 98 94 89 88 84 86 84 82 90 93 98 106 119 108 94 91
229 229 219 210 216 215 212 213 211 210 210 206 205 207 207 217 210 199 199 206 195 180 168 140 132 125 116 115 110 108 98 93 96 93 90 90 89 92 88 88 89 86 84 85
238 222 220 215 219 215 211 211 212 209 209 208 203 207 204 213 214 205 198 202 196 182 177 172 143 141 128 121 119 119 109 102 103 97 101 102 96 88 91 94 92 87 85 83
255 237 226 222 221 215 209 207 210 209 208 208 204 205 203 209 215 213 200 193 201 189 187 176 181 152 148 138 131 125 115 109 100 102 106 106 103 97 88 87 86 84 84 86
300 255 234 222 215 212 204 204 206 207 205 208 207 202 203 204 211 215 203 192 199 195 191 184 174 171 156 145 145 143 134 123 111 96 92 98 96 84 80 94 100 88 85 81
337 287 237 221 213 206 204 202 202 206 203 208 205 201 203 202 209 214 207 201 203 202 191 191 196 181 173 160 155 148 141 136 133 129 114 96 92 94 70 85 99 108 94 90
357 327 242 217 210 202 201 201 200 204 201 206 206 202 204 203 206 211 211 203 203 206 198 196 196 196 187 180 179 173 170 166 154 154 145 128 123 115 103 56 109 115 122 114
349 354 292 223 208 202 200 201 199 202 199 205 206 203 203 203 205 209 209 206 200 209 207 201 209 201 199 200 191 193 194 204 196 179 166 143 9 234 222 304 83 120 146 126
340 355 336 245 213 204 198 200 199 200 200 204 207 204 203 203 205 205 209 208 203 205 211 210 213 206 200 204 197 201 204 203 203 211 217 225 267 258 261 252 248 207 190 243
331 335 351 279 223 206 200 199 198 199 200 197 210 204 202 204 205 206 207 208 212 206 212 214 215 209 207 208 206 203 208 211 216 221 232 242 249 266 245 207 240 232 221 231
319 329 336 320 239 210 202 199 199 199 199 199 210 206 204 205 206 208 209 212 216 218 216 220 219 213 214 215 216 220 214 214 219 227 253 241 249 262 243 224 234 247 257 241
311 323 323 323 252 218 206 199 201 202 202 205 211 210 208 206 207 210 212 212 216 220 216 220 221 219 218 219 222 223 225 221 225 229 239 246 254 258 254 252 247 245 244 249
302 308 315 316 261 223 209 203 201 203 203 207 210 214 210 208 208 209 213 213 214 219 219 216 220 221 222 225 224 223 228 230 230 231 240 251 256 263 257 249 252 255 242 250
303 304 316 317 266 222 214 206 203 201 202 205 208 213 212 210 209 210 212 214 216 217 219 218 220 219 221 224 227 230 230 232 236 234 237 243 250 252 252 253 255 247 254 257
297 303 312 321 269 224 213 209 206 201 202 201 210 212 217 213 212 213 212 213 214 219 219 219 221 220 221 223 226 232 234 236 236 237 240 236 249 255 259 256 257 250 257 267
297 302 308 317 270 226 217 210 208 205 199 203 209 209 212 216 211 212 212 216 216 217 219 222 224 225 226 225 227 229 231 236 235 238 242 244 249 262 255 262 261 254 260 266
303 304 317 318 265 228 216 211 210 208 205 204 206 213 212 216 219 213 215 216 219 219 221 223 224 226 225 230 231 229 227 230 235 237 238 241 246 245 255 248 251 257 259 264
306 316 321 317 276 230 216 212 208 209 209 208 209 213 216 218 219 222 217 217 219 223 224 224 225 225 227 230 233 232 230 229 236 240 241 239 236 248 250 247 247 247 251 255
309 319 323 314 290 239 218 213 209 209 211 212 211 212 214 217 217 220 224 222 222 222 223 226 226 227 228 229 233 234 235 235 237 239 243 241 242 252 247 242 249 251 253 257
316 320 326 318 298 244 220 213 210 209 212 214 215 213 215 218 219 219 219 225 225 224 224 225 228 231 233 234 234 236 237 239 240 243 241 244 246 249 246 246 249 251 249 253
321 323 331 321 305 251 221 212 208 208 212 214 216 217 216 219 220 220 216 219 224 225 225 228 231 229 234 235 238 238 238 241 240 242 247 250 251 249 243 246 247 251 256 259
319 326 333 322 303 257 221 210 207 200 208 212 217 218 220 220 221 223 222 221 221 223 225 228 231 234 232 239 239 240 241 240 242 244 245 249 247 251 245 246 244 246 251 256
Height
10877 10882 10888 10895 10906 10917 10924 10931 10939 10947 10954 10963 10969 10973 10978 10983 10988 10990 10991 10992 10990 10991 10989 10986 10982 10981 10980 10976 10971 10967 10963 10957 10954 10953 10952 10951 10953 10955 10955 10955 10956 10957 10959 10960
10863 10870 10877 10885 10894 10904 10913 10921 10929 10937 10946 10956 10964 10969 10974 10980 10985 10988 10991 10992 10992 10993 10992 10990 10987 10985 10984 10982 10978 10975 10971 10966 10963 10961 10960 10958 10960 10960 10960 10962 10963 10964 10966 10968
10850 10858 10864 10873 10882 10892 10901 10910 10918 10927 10938 10947 10954 10963 10969 10975 10981 10986 10989 10991 10993 10994 10993 10993 10992 10989 10988 10987 10985 10982 10979 10974 10972 10969 10968 10968 10967 10967 10969 10971 10970 10972 10973 10974
10835 10843 10851 10857 10866 10878 10888 10898 10908 10917 10927 10936 10946 10955 10964 10970 10977 10982 10986 10989 10992 10993 10995 10994 10994 10994 10992 10991 10991 10989 10986 10983 10980 10978 10975 10975 10976 10976 10978 10979 10978 10978 10979 10979
10820 10825 10835 10842 10850 10863 10875 10886 10897 10907 10918 10928 10938 10948 10957 10963 10972 10978 10983 10986 10990 10992 10995 10994 10994 10995 10995 10994 10994 10992 10991 10990 10988 10986 10984 10984 10983 10984 10984 10985 10985 10985 10984 10984
10801 10808 10817 10824 10835 10847 10859 10871 10882 10895 10906 10917 10929 10939 10948 10957 10965 10972 10978 10983 10987 10991 10994 10994 10994 10995 10996 10996 10996 10996 10995 10995 10996 10995 10993 10992 10992 10992 10991 10990 10990 10989 10989 10989
10782 10787 10795 10808 10816 10828 10842 10856 10867 10882 10893 10906 10920 10929 10939 10949 10956 10965 10973 10978 10984 10987 10992 10993 10993 10994 10995 10996 10997 10997 10998 10998 10998 10999 10999 10999 11000 11000 10999 11000 10998 10996 10996 10995
10767 10769 10775 10784 10798 10810 10826 10839 10851 10868 10883 10898 10907 10919 10931 10940 10949 10958 10967 10974 10980 10982 10987 10991 10993 10994 10995 10995 10997 10998 10998 11000 11001 11002 11003 11004 11004 11004 11004 11005 11005 11005 11005 11003
10757 10755 10756 10764 10779 10794 10808 10822 10838 10858 10875 10882 10897 10909 10920 10930 10939 10947 10959 10968 10972 10974 10980 10985 10991 10993 10994 10995 10997 10998 10999 11001 11003 11004 11006 11006 11007 11008 11007 11006 11007 11008 11009 11009
10750 10747 10746 10750 10761 10776 10796 10814 10832 10844 10855 10869 10885 10898 10908 10919 10929 10937 10950 10959 10964 10969 10976 10981 10987 10991 10992 10993 10996 10998 11000 11002 11004 11006 11007 11007 11007 11008 11010 11010 11010 11010 11010 11011
10748 10743 10742 10743 10752 10764 10784 10805 10817 10831 10845 10855 10870 10886 10897 10908 10918 10928 10939 10948 10956 10963 10969 10975 10980 10986 10989 10991 10994 10996 10998 11001 11002 11004 11005 11007 11007 11009 11009 11011 11012 11012 11012 11012
10746 10742 10739 10741 10745 10756 10774 10792 10809 10823 10832 10841 10858 10873 10884 10897 10907 10918 10929 10939 10948 10955 10963 10969 10974 10979 10983 10987 10990 10993 10995 10998 11000 11002 11004 11005 11007 11008 11009 11010 11011 11012 11013 11013
10743 10741 10737 10737 10740 10748 10762 10781 10797 10809 10822 10831 10841 10859 10872 10884 10895 10906 10917 10927 10938 10946 10954 10963 10969 10972 10976 10981 10984 10987 10991 10994 10996 10998 11001 11002 11004 11005 11007 11008 11010 11011 11013 11014
10737 10736 10735 10733 10734 10740 10753 10767 10782 10795 10809 10821 10825 10843 10858 10869 10882 10894 10905 10915 10924 10936 10943 10951 10960 10965 10970 10974 10977 10981 10985 10989 10993 10994 10996 10998 10999 11001 11003 11005 11007 11009 11011 11014
10733 10730 10729 10729 10728 10731 10742 10758 10771 10784 10798 10808 10811 10827 10843 10857 10869 10882 10893 10904 10912 10923 10934 10941 10948 10955 10961 10965 10969 10974 10978 10981 10985 10989 10992 10993 10995 10997 10999 11000 11002 11004 11007 11010
10729 10725 10721 10722 10722 10724 10734 10746 10762 10774 10786 10796 10805 10814 10830 10845 10857 10870 10880 10892 10902 10910 10922 10931 10938 10946 10951 10956 10962 10966 10970 10975 10978 10981 10984 10985 10987 10990 10992 10994 10996 10997 11000 11004
10721 10718 10715 10712 10713 10715 10723 10734 10748 10762 10774 10783 10794 10804 10819 10833 10845 10858 10869 10880 10891 10900 10909 10921 10927 10935 10941 10946 10954 10959 10963 10966 10969 10972 10976 10978 10980 10981 10983 10986 10988 10990 10993 10997
10712 10710 10706 10701 10700 10703 10706 10718 10731 10746 10761 10770 10782 10794 10807 10820 10834 10845 10856 10867 10878 10888 10897 10906 10915 10923 10929 10935 10940 10946 10952 10957 10961 10963 10967 10969 10970 10972 10974 10976 10980 10982 10984 10987
10702 10699 10696 10691 10688 10690 10694 10705 10716 10733 10747 10759 10770 10782 10792 10807 10822 10834 10843 10854 10864 10873 10883 10892 10899 10908 10915 10922 10929 10934 10939 10945 10950 10953 10955 10957 10960 10962 10964 10967 10970 10973 10974 10977
10692 10689 10685 10680 10674 10678 10680 10689 10704 10717 10734 10745 10756 10770 10782 10794 10808 10818 10830 10841 10850 10859 10869 10879 10889 10896 10903 10909 10915 10921 10928 10934 10937 10939 10943 10947 10951 10951 10953 10955 10957 10960 10961 10965
10681 10677 10672 10665 10660 10663 10666 10674 10687 10706 10719 10730 10743 10757 10772 10783 10794 10805 10815 10826 10836 10846 10856 10866 10874 10883 10890 10895 10901 10908 10914 10919 10922 10927 10933 10937 10939 10941 10945 10944 10949 10948 10948 10951
10670 10665 10659 10650 10646 10648 10651 10659 10672 10686 10702 10712 10728 10742 10758 10769 10780 10790 10803 10814 10823 10832 10843 10852 10861 10869 10874 10880 10887 10895 10900 10906 10910 10916 10920 10925 10927 10929 10932 10932 10933 10935 10934 10935
10660 10655 10648 10638 10634 10635 10638 10647 10660 10674 10686 10700 10717 10733 10744 10749 10765 10777 10789 10800 10808 10817 10830 10836 10847 10852 10859 10867 10873 10880 10885 10891 10896 10900 10905 10910 10913 10917 10919 10920 10921 10921 10921 10919
10650 10645 10636 10627 10624 10623 10628 10637 10650 10662 10673 10689 10702 10717 10726 10737 10750 10765 10775 10784 10794 10804 10813 10822 10830 10837 10845 10851 10858 10862 10868 10874 10879 10883 10888 10892 10895 10901 10902 10900 10903 10904 10902 10896
10643 10636 10627 10617 10614 10614 10618 10627 10638 10651 10662 10676 10688 10702 10714 10724 10733 10747 10762 10769 10775 10786 10796 10806 10814 10824 10829 10835 10840 10845 10851 10858 10862 10866 10869 10873 10878 10882 10884 10882 10885 10885 10879 10881
10635 10629 10620 10610 10607 10607 10610 10616 10626 10639 10651 10662 10674 10685 10698 10712 10723 10733 10745 10755 10762 10772 10785 10794 10801 10809 10817 10820 10823 10828 10834 10840 10844 10847 10851 10855 10860 10863 10865 10865 10865 10865 10862 10862